Location: Smoky Mountain Stargaze
(35.4252°N, 83.3329°W)
Time: 01:58:19
(UTC-04:00)

Amateur Radio Satellites - All Passes

Search period start: 29 July 2016 01:28
Search period end: 30 July 2016 01:28
Location: Smoky Mountain Stargaze, 35.4252°N, 83.3329°W

Satellite Date Start Highest point End Downlink Frequencies (MHz)
Time Altitude Azimuth
NANOSAT C BR1 29 Jul 01:28:21 01:32:33 55° 285° (WNW) 01:36:41 145.865
DUCHIFAT 1 29 Jul 01:31:43 01:35:53 54° 285° (WNW) 01:40:01 145.980
TISAT 1 29 Jul 01:37:00 01:40:54 39° 73° (ENE) 01:44:50 437.305
BUGSAT 1 29 Jul 01:38:19 01:42:35 73° 102° (ESE) 01:46:48 437.445
50 SAT 29 Jul 01:39:53 01:41:28 12° 266° (W) 01:43:02 437.505
DX 1 29 Jul 01:45:27 01:48:43 21° 264° (W) 01:52:00 434.975-435.025
QB50P1 29 Jul 01:52:22 01:56:00 28° 289° (WNW) 01:59:37 145.935-145.965
AISAT 29 Jul 01:54:15 01:55:58 12° 268° (W) 01:57:41 437.250
UKube-1 29 Jul 01:55:33 01:58:45 20° 264° (W) 02:01:58 .
JUGNU 29 Jul 01:56:21 01:59:33 15° 171° (S) 02:02:44 437.505
POPSAT HIP 1 29 Jul 01:59:10 02:02:37 24° 290° (WNW) 02:06:03 437.405
GONETS M04 29 Jul 02:06:47 02:13:45 25° 70° (ENE) 02:20:40
AIST 1 29 Jul 02:14:06 02:17:26 22° 271° (W) 02:20:46
QB50P2 29 Jul 02:21:52 02:23:51 13° 294° (WNW) 02:25:49 145.880/145.840
POLYITAN 1 29 Jul 02:24:35 02:26:29 13° 294° (WNW) 02:28:23 437.675
Gurwin Techsat 1B 29 Jul 02:25:26 02:28:18 15° 92° (E) 02:31:08 435.225
SPROUT 29 Jul 02:27:08 02:28:33 11° 268° (W) 02:29:58 437.525
Oscar 19 29 Jul 02:27:36 02:32:23 37° 98° (E) 02:37:09 437.125/150
JAS-2 29 Jul 02:29:54 02:35:10 56° 286° (WNW) 02:40:58 435.910
SWISSCUBE 29 Jul 02:31:27 02:35:45 34° 71° (ENE) 02:40:02 437.505
BEESAT 29 Jul 02:52:13 02:56:50 51° 73° (ENE) 03:01:28 436.000
BEESAT 3 29 Jul 02:56:39 02:58:44 14° 49° (NE) 03:00:49 437.485
TISAT 1 29 Jul 03:14:29 03:16:41 14° 267° (W) 03:18:55 437.305
ITUPSAT 1 29 Jul 03:16:27 03:21:15 89° 256° (WSW) 03:26:04 437.325
MOZHAYETS 4 29 Jul 03:19:39 03:20:33 11° 64° (ENE) 03:21:26
Cosmos 2499 29 Jul 03:22:49 03:30:20 53° 79° (ENE) 03:37:19 435.465 / 435.565
PCSat 29 Jul 03:32:41 03:33:14 10° 44° (NE) 03:33:48 145.827
JUGNU 29 Jul 03:44:01 03:47:50 17° 181° (S) 03:51:37 437.505
CUSAT 1 29 Jul 03:46:07 03:49:43 27° 97° (E) 03:52:39 437.405
ISS 29 Jul 03:48:40 03:51:33 28° 35° (NE) 03:54:27 145.825
GONETS M04 29 Jul 04:02:26 04:11:05 63° 269° (W) 04:19:45
Gurwin Techsat 1B 29 Jul 04:03:21 04:08:35 58° 286° (WNW) 04:13:46 435.225
KKS-1 29 Jul 04:04:07 04:08:00 31° 71° (ENE) 04:11:55 437.445
ITAMSAT 1 29 Jul 04:06:09 04:11:08 45° 99° (E) 04:16:04 435.822/435.867
Oscar 19 29 Jul 04:07:27 04:11:27 23° 293° (WNW) 04:15:28 437.125/150
SWISSCUBE 29 Jul 04:09:56 04:13:33 21° 265° (W) 04:17:11 437.505
SRMSAT 29 Jul 04:16:54 04:20:03 15° 171° (S) 04:23:12 437.500
DANDE 29 Jul 04:26:01 04:31:11 35° 96° (E) 04:35:11 436.750
BEESAT 29 Jul 04:32:23 04:34:51 14° 267° (W) 04:37:20 436.000
BEESAT 3 29 Jul 04:32:51 04:36:40 48° 245° (WSW) 04:40:27 437.485
STARS 29 Jul 04:37:07 04:41:05 35° 72° (ENE) 04:45:05 437.465
BEESAT 2 29 Jul 04:42:53 04:46:54 76° 241° (WSW) 04:50:52 435.950
AO-7 29 Jul 04:49:03 04:57:04 48° 101° (ESE) 05:04:59 29.400- 29.500
MOZHAYETS 4 29 Jul 04:52:28 04:57:05 69° 259° (WSW) 05:01:42
PCSat 29 Jul 05:12:11 05:17:36 71° 63° (ENE) 05:22:59 145.827
Cosmos 2499 29 Jul 05:17:05 05:22:46 23° 277° (W) 05:28:13 435.465 / 435.565
HORYU 2 29 Jul 05:23:42 05:25:33 12° 92° (E) 05:27:23 437.375
AIST 2 29 Jul 05:24:19 05:26:31 14° 48° (NE) 05:28:43 435.215
ISS 29 Jul 05:25:16 05:27:53 22° 230° (SW) 05:30:30 145.825
CUSAT 1 29 Jul 05:30:00 05:31:32 12° 281° (WNW) 05:32:56 437.405
JUGNU 29 Jul 05:33:24 05:36:05 13° 191° (SSW) 05:38:46 437.505
KKS-1 29 Jul 05:41:18 05:44:34 20° 265° (W) 05:47:51 437.445
ITAMSAT 1 29 Jul 05:46:38 05:50:13 19° 295° (WNW) 05:53:47 435.822/435.867
SRMSAT 29 Jul 06:04:44 06:08:28 17° 181° (S) 06:12:12 437.500
DANDE 29 Jul 06:09:58 06:13:46 19° 281° (W) 06:16:57 436.750
STARS 29 Jul 06:14:35 06:17:31 17° 266° (W) 06:20:27 437.465
NOAA 15 29 Jul 06:17:04 06:17:17 10° 91° (E) 06:17:29 137.62
CUBESAT XI-V 29 Jul 06:17:30 06:22:07 73° 258° (WSW) 06:26:43 437.345
RS-15 29 Jul 06:18:45 06:28:57 41° 106° (ESE) 06:39:38 29.354- 29.394
BRITE-PL 29 Jul 06:40:37 06:44:56 28° 97° (E) 06:49:29 437.365/2234.400
AO-7 29 Jul 06:42:14 06:49:31 35° 298° (WNW) 06:56:46 29.400- 29.500
NOAA 18 29 Jul 06:54:28 06:58:29 20° 95° (E) 07:02:27 137.9125
HORYU 2 29 Jul 06:58:01 07:02:21 50° 287° (WNW) 07:06:38 437.375
PCSat 29 Jul 06:58:05 07:00:18 13° 257° (WSW) 07:02:31 145.827
AIST 2 29 Jul 07:01:14 07:05:19 54° 244° (WSW) 07:09:22 435.215
STRAND 1 29 Jul 07:01:41 07:05:21 20° 66° (ENE) 07:09:02 437.568
O/OREOS (USA 219) 29 Jul 07:05:24 07:09:55 68° 69° (ENE) 07:14:27 437.305
DOVE 4 29 Jul 07:16:00 07:18:27 13° 91° (E) 07:20:54 437.250
Cubesat XI-IV 29 Jul 07:16:38 07:21:28 34° 98° (E) 07:26:14 437.490
SO-50 29 Jul 07:19:03 07:22:35 20° 110° (ESE) 07:26:07 436.795
LilacSat-2 29 Jul 07:29:08 07:32:51 44° 99° (E) 07:36:30 437.200
GOMX 1 29 Jul 07:31:36 07:36:33 43° 99° (E) 07:41:41 467.674
Cosmos 2491 29 Jul 07:38:30 07:41:26 12° 62° (ENE) 07:44:23 435.465 / 435.565
CUTE-I 29 Jul 07:39:17 07:44:32 58° 101° (E) 07:49:45 437.470
NOAA 15 29 Jul 07:52:16 07:57:33 79° 285° (WNW) 08:02:49 137.62
SRMSAT 29 Jul 07:54:19 07:56:52 13° 192° (SSW) 07:59:25 437.500
HO-68 29 Jul 07:58:38 08:00:43 11° 90° (E) 08:02:48 435.675
PRISM 29 Jul 08:17:13 08:18:21 11° 65° (ENE) 08:19:29 437.425
BRITE-PL 29 Jul 08:19:01 08:23:18 30° 288° (WNW) 08:27:51 437.365/2234.400
RS-15 29 Jul 08:29:48 08:40:57 55° 307° (NW) 08:52:46 29.354- 29.394
NOAA 18 29 Jul 08:34:02 08:39:18 46° 289° (WNW) 08:44:31 137.9125
STRAND 1 29 Jul 08:39:19 08:44:11 43° 261° (W) 08:49:05 437.568
SEEDS 29 Jul 08:41:22 08:43:05 12° 92° (E) 08:44:47 437.485
CINEMA 3 29 Jul 08:47:15 08:51:45 33° 96° (E) 08:56:11 145.822/145.860
DOVE 4 29 Jul 08:51:16 08:56:26 65° 285° (WNW) 09:01:41 437.250
Cubesat XI-IV 29 Jul 08:56:57 09:01:21 26° 292° (WNW) 09:05:42 437.490
SO-50 29 Jul 08:58:09 09:02:46 42° 304° (NW) 09:07:23 436.795
YUBILEINY 29 Jul 09:01:09 09:07:08 21° 81° (E) 09:13:09 435.215
LilacSat-2 29 Jul 09:05:44 09:06:41 11° 293° (WNW) 09:07:37 437.200
GOMX 1 29 Jul 09:10:29 09:14:18 21° 291° (WNW) 09:18:14 467.674
AAUSAT CUBESAT 2 29 Jul 09:14:13 09:16:49 16° 94° (E) 09:19:25 437.432
UWE-3 29 Jul 09:15:40 09:16:15 10° 90° (E) 09:16:50 435.000/436.395/437.385
CUTE-I 29 Jul 09:20:53 09:24:03 16° 296° (WNW) 09:27:12 437.470
CANX-2 29 Jul 09:26:52 09:31:05 81° 102° (ESE) 09:35:16 2200.000
Cosmos 2491 29 Jul 09:31:03 09:39:50 74° 82° (E) 09:48:36 435.465 / 435.565
CUBEBUG 2 29 Jul 09:39:27 09:43:38 32° 96° (E) 09:47:43 437.445
CUTE 1.7 + AOD 2 29 Jul 09:39:51 09:44:04 82° 283° (WNW) 09:48:14 437.475
HO-68 29 Jul 09:42:03 09:49:17 83° 105° (ESE) 09:56:28 435.675
Oscar 11 29 Jul 09:46:21 09:48:52 15° 93° (E) 09:51:23 145.826/435.025
PRISM 29 Jul 09:49:14 09:53:11 50° 260° (W) 09:57:09 437.425
UNISAT 6 29 Jul 10:02:34 10:05:26 16° 66° (ENE) 10:08:18 437.425
SEEDS 29 Jul 10:15:01 10:18:58 43° 286° (WNW) 10:22:54 437.485
COMPASS 1 29 Jul 10:22:24 10:26:25 51° 285° (WNW) 10:30:24 437.405
CINEMA 3 29 Jul 10:24:39 10:28:40 25° 291° (WNW) 10:32:37 145.822/145.860
M-CUBED/EXP-1 PRIME 29 Jul 10:28:16 10:29:53 12° 96° (E) 10:31:28 437.505
ANTELSAT 29 Jul 10:39:14 10:43:32 40° 73° (ENE) 10:47:55 437.575/2403.000
FUNcube-1 29 Jul 10:41:36 10:46:02 65° 101° (E) 10:50:19 145.935
ZACube-1 29 Jul 10:43:50 10:48:18 75° 100° (E) 10:52:38 437.345
UWE-3 29 Jul 10:48:35 10:53:06 60° 285° (WNW) 10:57:27 435.000/436.395/437.385
AAUSAT CUBESAT 2 29 Jul 10:48:42 10:52:21 31° 288° (WNW) 10:56:00 437.432
RS-15 29 Jul 10:49:26 10:57:07 19° 337° (NNW) 11:05:03 29.354- 29.394
AUBIESAT-1 29 Jul 10:51:02 10:54:07 17° 98° (E) 10:57:07 437.475
DELFI C3 29 Jul 10:51:44 10:55:23 36° 98° (E) 10:59:01 145.870
YUBILEINY 29 Jul 10:54:13 11:02:57 72° 278° (W) 11:11:48 435.215
QB50P1 29 Jul 11:08:36 11:09:48 11° 65° (ENE) 11:11:00 145.935-145.965
Cosmos 2504 29 Jul 11:08:52 11:17:20 53° 90° (E) 11:25:48 435.465 / 435.565
POPSAT HIP 1 29 Jul 11:14:28 11:16:25 13° 66° (ENE) 11:18:23 437.405
CUBEBUG 2 29 Jul 11:16:30 11:20:00 21° 292° (WNW) 11:23:26 437.445
TIGRISAT 29 Jul 11:19:51 11:24:27 76° 258° (WSW) 11:29:10 435.000
Oscar 11 29 Jul 11:21:08 11:25:07 37° 287° (WNW) 11:29:04 145.826/435.025
Cosmos 2491 29 Jul 11:29:53 11:35:40 20° 279° (W) 11:41:30 435.465 / 435.565
HO-68 29 Jul 11:31:47 11:36:05 17° 302° (WNW) 11:40:24 435.675
QB50P2 29 Jul 11:34:22 11:37:47 24° 70° (ENE) 11:41:14 145.880/145.840
POLYITAN 1 29 Jul 11:36:57 11:40:24 25° 70° (ENE) 11:43:53 437.675
UNISAT 6 29 Jul 11:37:18 11:41:43 45° 262° (W) 11:46:13 437.425
HUMSAT D 29 Jul 11:37:54 11:42:02 62° 100° (E) 11:46:06 437.325/437.525
M-CUBED/EXP-1 PRIME 29 Jul 12:00:01 12:04:43 64° 289° (WNW) 12:09:18 437.505
AISAT 29 Jul 12:10:14 12:11:57 12° 92° (E) 12:13:40 437.250
NANOSAT C BR1 29 Jul 12:16:57 12:21:08 70° 77° (ENE) 12:25:23 145.865
ANTELSAT 29 Jul 12:17:19 12:20:21 17° 267° (W) 12:23:26 437.575/2403.000
DUCHIFAT 1 29 Jul 12:20:02 12:24:13 71° 76° (ENE) 12:28:27 145.980
FUNcube-1 29 Jul 12:21:18 12:21:37 10° 296° (WNW) 12:21:56 145.935
AUBIESAT-1 29 Jul 12:24:17 12:28:40 42° 292° (WNW) 12:32:58 437.475
BUGSAT 1 29 Jul 12:25:11 12:28:47 32° 72° (ENE) 12:32:29 437.445
DELFI C3 29 Jul 12:27:52 12:29:54 14° 292° (WNW) 12:31:54 145.870
JAS-2 29 Jul 12:39:12 12:44:48 41° 72° (ENE) 12:49:54 435.910
SPROUT 29 Jul 12:39:53 12:40:51 11° 92° (E) 12:41:50 437.525
QB50P1 29 Jul 12:40:53 12:45:02 55° 260° (W) 12:49:14 145.935-145.965
POPSAT HIP 1 29 Jul 12:47:41 12:51:45 46° 261° (W) 12:55:53 437.405
ESTCUBE 1 29 Jul 12:52:47 12:57:15 69° 102° (ESE) 13:01:43 437.505/2401.250
AO-85 29 Jul 12:53:36 12:57:32 21° 109° (ESE) 13:01:23 145.980
CUBEBUG 1 29 Jul 12:54:02 12:58:16 45° 99° (E) 13:02:30 437.445
YUBILEINY 29 Jul 12:58:46 13:01:24 11° 298° (WNW) 13:04:03 435.215
VELOX 1 29 Jul 12:59:15 13:03:30 43° 99° (E) 13:07:44 145.980
Cosmos 2504 29 Jul 13:03:17 13:10:56 32° 287° (WNW) 13:18:36 435.465 / 435.565
AIST 1 29 Jul 13:03:26 13:06:08 17° 87° (E) 13:08:51
50 SAT 29 Jul 13:09:06 13:12:40 64° 101° (E) 13:16:13 437.505
QB50P2 29 Jul 13:10:01 13:13:28 24° 264° (W) 13:16:55 145.880/145.840
RS-15 29 Jul 13:10:11 13:16:57 16° 15° (NNE) 13:23:46 29.354- 29.394
POLYITAN 1 29 Jul 13:12:41 13:16:06 23° 264° (W) 13:19:33 437.675
DX 1 29 Jul 13:35:14 13:39:38 82° 101° (E) 13:44:01 434.975-435.025
Oscar 19 29 Jul 13:41:29 13:46:13 39° 71° (ENE) 13:50:57 437.125/150
Gurwin Techsat 1B 29 Jul 13:43:29 13:47:02 19° 65° (ENE) 13:50:37 435.225
UKube-1 29 Jul 13:44:14 13:48:35 82° 103° (ESE) 13:52:55 .
AISAT 29 Jul 13:44:20 13:48:40 51° 286° (WNW) 13:53:00 437.250
BUGSAT 1 29 Jul 14:01:37 14:04:14 16° 266° (W) 14:06:52 437.445
SPROUT 29 Jul 14:12:51 14:17:04 53° 286° (WNW) 14:21:16 437.525
CUSAT 1 29 Jul 14:22:12 14:23:03 11° 78° (ENE) 14:23:56 437.405
JAS-2 29 Jul 14:25:16 14:29:56 23° 263° (W) 14:34:16 435.910
CUBEBUG 1 29 Jul 14:31:46 14:34:09 14° 293° (WNW) 14:36:32 437.445
AO-85 29 Jul 14:32:31 14:37:43 48° 303° (WNW) 14:42:45 145.980
VELOX 1 29 Jul 14:37:01 14:39:34 15° 294° (WNW) 14:42:07 145.980
SWISSCUBE 29 Jul 14:37:35 14:38:18 10° 91° (E) 14:39:02 437.505
AIST 1 29 Jul 14:39:42 14:43:26 30° 282° (WNW) 14:47:13
BEESAT 29 Jul 14:56:36 14:59:35 16° 94° (E) 15:02:31 436.000
TISAT 1 29 Jul 14:59:01 15:03:16 73° 283° (WNW) 15:07:29 437.305
GONETS M04 29 Jul 15:04:15 15:11:33 31° 85° (E) 15:18:50
ITUPSAT 1 29 Jul 15:20:27 15:24:36 29° 97° (E) 15:28:43 437.325
ITAMSAT 1 29 Jul 15:20:58 15:26:01 52° 72° (ENE) 15:31:05 435.822/435.867
Gurwin Techsat 1B 29 Jul 15:21:25 15:26:33 49° 260° (W) 15:31:44 435.225
Oscar 19 29 Jul 15:21:53 15:25:37 21° 265° (W) 15:29:24 437.125/150
RS-15 29 Jul 15:22:55 15:34:23 41° 47° (NE) 15:45:40 29.354- 29.394
AO-7 29 Jul 15:44:28 15:52:25 51° 66° (ENE) 16:00:25 29.400- 29.500
Cosmos 2499 29 Jul 15:53:35 16:02:02 51° 90° (E) 16:10:18 435.465 / 435.565
CUSAT 1 29 Jul 16:01:51 16:04:51 30° 263° (W) 16:08:35 437.405
SWISSCUBE 29 Jul 16:11:45 16:16:29 66° 286° (WNW) 16:21:10 437.505
PHONESAT 2.4 29 Jul 16:22:09 16:25:08 50° 153° (SSE) 16:28:08 2401.200-2431.200
BEESAT 29 Jul 16:33:01 16:37:31 43° 288° (WNW) 16:41:59 436.000
DANDE 29 Jul 16:49:47 16:51:57 20° 264° (W) 16:54:24 436.750
MOZHAYETS 4 29 Jul 16:50:48 16:54:58 34° 97° (E) 16:59:05
ITUPSAT 1 29 Jul 16:58:27 17:02:16 25° 292° (WNW) 17:06:05 437.325
GONETS M04 29 Jul 16:59:37 17:07:55 49° 282° (WNW) 17:16:18
ITAMSAT 1 29 Jul 17:02:33 17:05:44 16° 267° (W) 17:08:55 435.822/435.867
SO-50 29 Jul 17:32:22 17:36:58 76° 59° (ENE) 17:41:26 436.795
NOAA 15 29 Jul 17:32:48 17:35:21 14° 63° (ENE) 17:37:54 137.62
KKS-1 29 Jul 17:33:45 17:38:15 84° 286° (WNW) 17:42:44 437.445
RS-15 29 Jul 17:35:24 17:47:26 62° 249° (WSW) 17:59:13 29.354- 29.394
AO-7 29 Jul 17:38:05 17:45:20 32° 262° (W) 17:52:37 29.400- 29.500
Cosmos 2499 29 Jul 17:47:35 17:55:18 33° 286° (WNW) 18:02:54 435.465 / 435.565
BRITE-PL 29 Jul 17:50:13 17:53:03 18° 69° (ENE) 17:55:55 437.365/2234.400
HORYU 2 29 Jul 17:52:26 17:56:55 81° 259° (W) 18:01:26 437.375
PHONESAT 2.4 29 Jul 17:58:47 18:01:42 38° 348° (NNW) 18:04:37 2401.200-2431.200
STARS 29 Jul 18:05:11 18:09:38 77° 283° (WNW) 18:14:02 437.465
LilacSat-2 29 Jul 18:09:17 18:11:36 15° 69° (ENE) 18:13:54 437.200
PCSat 29 Jul 18:10:34 18:13:08 13° 103° (ESE) 18:15:41 145.827
CUBESAT XI-V 29 Jul 18:17:16 18:21:28 34° 98° (E) 18:25:40 437.345
NOAA 18 29 Jul 18:17:27 18:22:10 30° 68° (ENE) 18:26:55 137.9125
BEESAT 3 29 Jul 18:20:10 18:24:00 56° 116° (ESE) 18:27:51 437.485
MOZHAYETS 4 29 Jul 18:28:36 18:31:51 20° 292° (WNW) 18:35:07
BEESAT 2 29 Jul 18:31:56 18:35:34 37° 114° (ESE) 18:39:15 435.950
Cubesat XI-IV 29 Jul 18:35:29 18:40:31 42° 71° (ENE) 18:45:33 437.490
GOMX 1 29 Jul 18:37:50 18:41:22 27° 70° (ENE) 18:45:00 467.674
CUTE-I 29 Jul 18:57:54 19:03:14 70° 74° (ENE) 19:08:36 437.470
NOAA 15 29 Jul 19:09:19 19:14:31 67° 258° (WSW) 19:19:44 137.62
BRITE-PL 29 Jul 19:27:47 19:31:22 28° 264° (W) 19:34:58 437.365/2234.400
PHONESAT 2.4 29 Jul 19:35:47 19:38:35 31° 5° (N) 19:41:23 2401.200-2431.200
O/OREOS (USA 219) 29 Jul 19:39:03 19:40:07 11° 98° (E) 19:41:11 437.305
LilacSat-2 29 Jul 19:42:08 19:45:36 31° 263° (W) 19:49:05 437.200
CINEMA 3 29 Jul 19:46:25 19:49:45 20° 67° (ENE) 19:53:12 145.822/145.860
PCSat 29 Jul 19:50:30 19:55:53 67° 298° (WNW) 20:01:17 145.827
DOVE 4 29 Jul 19:53:49 19:58:05 90° 243° (WSW) 20:02:38 437.250
CUBESAT XI-V 29 Jul 19:55:15 19:58:35 20° 292° (WNW) 20:01:56 437.345
NOAA 18 29 Jul 19:57:48 20:02:41 32° 262° (W) 20:07:38 137.9125
BEESAT 3 29 Jul 20:00:25 20:02:00 12° 313° (NW) 20:03:36 437.485
HO-68 29 Jul 20:07:09 20:13:53 46° 68° (ENE) 20:20:38 435.675
BEESAT 2 29 Jul 20:10:57 20:13:32 17° 310° (NW) 20:16:09 435.950
GOMX 1 29 Jul 20:16:24 20:19:28 20° 266° (W) 20:22:37 467.674
CANX-2 29 Jul 20:16:28 20:20:25 37° 73° (ENE) 20:24:22 2200.000
Cubesat XI-IV 29 Jul 20:16:42 20:20:42 21° 265° (W) 20:24:43 437.490
ISS 29 Jul 20:25:38 20:28:43 43° 134° (SE) 20:31:50 145.825
CUTE 1.7 + AOD 2 29 Jul 20:29:11 20:33:15 45° 74° (ENE) 20:37:20 437.475
CUBEBUG 2 29 Jul 20:34:51 20:38:11 20° 68° (ENE) 20:41:35 437.445
Cosmos 2491 29 Jul 20:36:39 20:41:06 15° 78° (ENE) 20:45:32 435.465 / 435.565
CUTE-I 29 Jul 20:41:42 20:43:43 12° 269° (W) 20:45:44 437.470
STRAND 1 29 Jul 20:52:34 20:57:42 83° 103° (ESE) 21:02:47 437.568
AIST 2 29 Jul 20:55:30 20:59:32 64° 117° (ESE) 21:03:38 435.215
SEEDS 29 Jul 21:03:00 21:07:13 83° 78° (ENE) 21:11:27 437.485
YUBILEINY 29 Jul 21:08:24 21:16:57 51° 78° (ENE) 21:25:23 435.215
Cosmos 2504 29 Jul 21:08:57 21:12:24 13° 63° (ENE) 21:15:44 435.465 / 435.565
COMPASS 1 29 Jul 21:09:33 21:13:42 67° 76° (ENE) 21:17:51 437.405
PHONESAT 2.4 29 Jul 21:12:15 21:15:20 80° 20° (NNE) 21:18:24 2401.200-2431.200
O/OREOS (USA 219) 29 Jul 21:14:35 21:18:57 55° 292° (WNW) 21:23:21 437.305
CINEMA 3 29 Jul 21:22:30 21:26:35 34° 264° (W) 21:30:53 145.822/145.860
FUNcube-1 29 Jul 21:33:44 21:37:50 35° 72° (ENE) 21:41:59 145.935
PRISM 29 Jul 21:33:59 21:37:25 25° 97° (E) 21:40:51 437.425
AAUSAT CUBESAT 2 29 Jul 21:35:02 21:39:11 76° 260° (W) 21:43:20 437.432
AUBIESAT-1 29 Jul 21:35:40 21:37:03 12° 59° (ENE) 21:38:28 437.475
DELFI C3 29 Jul 21:35:55 21:38:09 15° 68° (ENE) 21:40:24 145.870
ZACube-1 29 Jul 21:36:08 21:40:21 40° 73° (ENE) 21:44:39 437.345
UWE-3 29 Jul 21:41:39 21:46:12 74° 76° (ENE) 21:50:53 435.000/436.395/437.385
CANX-2 29 Jul 21:53:52 21:56:22 15° 267° (W) 21:58:53 2200.000
HO-68 29 Jul 21:55:33 22:01:40 30° 263° (W) 22:07:51 435.675
ISS 29 Jul 22:02:56 22:05:18 18° 329° (NNW) 22:07:40 145.825
CUTE 1.7 + AOD 2 29 Jul 22:07:31 22:09:18 12° 268° (W) 22:11:04 437.475
CUBEBUG 2 29 Jul 22:10:18 22:14:30 35° 263° (W) 22:18:49 437.445
Oscar 11 29 Jul 22:12:05 22:16:25 75° 257° (WSW) 22:20:47 145.826/435.025
HUMSAT D 29 Jul 22:26:06 22:29:50 29° 71° (ENE) 22:33:33 437.325/437.525
Cosmos 2491 29 Jul 22:27:55 22:36:38 88° 273° (W) 22:45:24 435.465 / 435.565
STRAND 1 29 Jul 22:35:19 22:36:07 10° 299° (WNW) 22:36:54 437.568
AIST 2 29 Jul 22:36:51 22:38:26 12° 314° (NW) 22:40:01 435.215
ANTELSAT 29 Jul 22:37:20 22:37:51 10° 90° (E) 22:38:21 437.575/2403.000
M-CUBED/EXP-1 PRIME 29 Jul 22:43:35 22:47:20 83° 253° (WSW) 22:51:26 437.505
PHONESAT 2.4 29 Jul 22:49:29 22:51:33 17° 215° (SW) 22:53:37 2401.200-2431.200
Cosmos 2504 29 Jul 22:59:04 23:07:07 86° 84° (E) 23:14:33 435.465 / 435.565
YUBILEINY 29 Jul 23:05:54 23:13:15 31° 276° (W) 23:20:35 435.215
AUBIESAT-1 29 Jul 23:07:15 23:10:57 51° 256° (WSW) 23:14:57 437.475
AO-85 29 Jul 23:07:46 23:12:02 64° 59° (ENE) 23:16:00 145.980
DELFI C3 29 Jul 23:09:04 23:12:41 34° 262° (W) 23:16:19 145.870
PRISM 29 Jul 23:09:28 23:12:34 21° 291° (WNW) 23:15:39 437.425
FUNcube-1 29 Jul 23:10:56 23:14:07 19° 266° (W) 23:17:21 145.935
ZACube-1 29 Jul 23:13:54 23:16:46 16° 267° (W) 23:19:40 437.345
TIGRISAT 29 Jul 23:15:05 23:19:03 28° 96° (E) 23:22:54 435.000
UNISAT 6 29 Jul 23:32:05 23:36:32 48° 99° (E) 23:40:51 437.425
50 SAT 29 Jul 23:44:30 23:47:01 18° 70° (ENE) 23:49:31 437.505
CUBEBUG 1 29 Jul 23:47:25 23:50:57 25° 70° (ENE) 23:54:30 437.445
ESTCUBE 1 29 Jul 23:49:12 23:53:26 42° 73° (ENE) 23:57:40 437.505/2401.250
VELOX 1 29 Jul 23:53:54 23:57:33 26° 70° (ENE) 00:01:12 145.980
HUMSAT D 30 Jul 00:02:14 00:05:25 20° 265° (W) 00:08:36 437.325/437.525
NANOSAT C BR1 30 Jul 00:05:58 00:08:14 14° 93° (E) 00:10:30 145.865
DUCHIFAT 1 30 Jul 00:08:47 00:11:03 14° 93° (E) 00:13:18 145.980
ANTELSAT 30 Jul 00:10:24 00:14:57 61° 285° (WNW) 00:19:21 437.575/2403.000
DX 1 30 Jul 00:27:37 00:31:45 46° 73° (ENE) 00:35:54 434.975-435.025
QB50P1 30 Jul 00:28:56 00:32:39 28° 97° (E) 00:36:20 145.935-145.965
Cosmos 2491 30 Jul 00:29:57 00:34:40 15° 295° (WNW) 00:39:25 435.465 / 435.565
POPSAT HIP 1 30 Jul 00:35:32 00:39:26 33° 98° (E) 00:43:18 437.405
UKube-1 30 Jul 00:35:38 00:39:42 44° 73° (ENE) 00:43:49 .
AISAT 30 Jul 00:38:13 00:42:36 87° 258° (WSW) 00:47:01 437.250
AIST 1 30 Jul 00:49:08 00:53:19 43° 80° (E) 00:57:29
TIGRISAT 30 Jul 00:51:57 00:55:33 23° 291° (WNW) 00:59:05 435.000
Cosmos 2504 30 Jul 00:55:35 00:59:09 14° 282° (WNW) 01:02:37 435.465 / 435.565
QB50P2 30 Jul 00:56:58 01:01:15 68° 101° (ESE) 01:05:29 145.880/145.840
POLYITAN 1 30 Jul 00:59:36 01:03:54 70° 102° (ESE) 01:08:08 437.675
SPROUT 30 Jul 01:02:51 01:07:07 75° 76° (ENE) 01:11:25 437.525
UNISAT 6 30 Jul 01:10:19 01:12:46 14° 295° (WNW) 01:15:12 437.425
50 SAT 30 Jul 01:17:30 01:20:27 23° 263° (W) 01:23:25 437.505
GONETS M04 30 Jul 01:20:26 01:23:29 12° 62° (ENE) 01:26:31
